This is the latest recevied weather packets stored in our database for station/object N5JXS. If no packets are shown the sender has not sent any weather packets the latest 1 day(s).
| Time | Temp. | Humidity | Pressure | Rain* | Wind** | Luminosity | Snow |
|---|---|---|---|---|---|---|---|
| 1777997167 | 0° C | 97% | 1016 hPa | 0 mm | 0.89 m/s, 117° | 42 W/m² | - |
| 1777996864 | 0° C | 97% | 1016.3 hPa | 0 mm | 0.45 m/s, 95° | 46 W/m² | - |
| 1777996560 | 0° C | 97% | 1016.1 hPa | 1.27 mm | 0.89 m/s, 148° | 33 W/m² | - |
| 1777996257 | 0° C | 96% | 1016 hPa | 1.27 mm | 0.89 m/s, 39° | 45 W/m² | - |
| 1777995953 | 0° C | 96% | 1016 hPa | 0 mm | 0.45 m/s, 141° | 39 W/m² | - |
| 1777995649 | 0° C | 96% | 1016 hPa | 0 mm | 0 m/s | 29 W/m² | - |
| 1777995347 | 0° C | 96% | 1016 hPa | 0 mm | 0 m/s | 26 W/m² | - |
| 1777995044 | 0° C | 96% | 1016.1 hPa | 0 mm | 0.45 m/s, 203° | 25 W/m² | - |
| 1777994740 | 0° C | 96% | 1016.1 hPa | 0 mm | 0.89 m/s, 100° | 29 W/m² | - |
| 1777994436 | 0° C | 96% | 1016.4 hPa | 0 mm | 0.89 m/s, 112° | 21 W/m² | - |
| 1777994131 | 0.56° C | 96% | 1016.3 hPa | 0 mm | 0.45 m/s, 60° | 15 W/m² | - |
| 1777993829 | 0° C | 96% | 1016.1 hPa | 0 mm | 0.45 m/s, 88° | 19 W/m² | - |
| 1777993525 | 0.56° C | 96% | 1015.9 hPa | 0 mm | 0.45 m/s, 67° | 16 W/m² | - |
| 1777993221 | 0.56° C | 96% | 1016.1 hPa | 0 mm | 0.89 m/s, 136° | 20 W/m² | - |
| 1777992917 | 0.56° C | 96% | 1016.1 hPa | 0 mm | 0.89 m/s, 139° | 20 W/m² | - |
| 1777992616 | 0.56° C | 96% | 1016.1 hPa | 0 mm | 0 m/s | 17 W/m² | - |
| 1777992313 | 0.56° C | 96% | 1016.3 hPa | 0 mm | 0.45 m/s, 44° | 19 W/m² | - |
| 1777992010 | 0.56° C | 96% | 1016.1 hPa | 0 mm | 0 m/s | 17 W/m² | - |
| 1777991708 | 0.56° C | 96% | 1016.4 hPa | 0 mm | 0 m/s | 12 W/m² | - |
| 1777991405 | 0.56° C | 96% | 1016.5 hPa | 0 mm | 0.45 m/s, 71° | 19 W/m² | - |
| 1777991102 | 0.56° C | 96% | 1016.4 hPa | 0 mm | 0 m/s | 12 W/m² | - |
| 1777990799 | 0.56° C | 96% | 1016.6 hPa | 0 mm | 0.89 m/s, 140° | 17 W/m² | - |
| 1777990496 | 0.56° C | 96% | 1016 hPa | 0 mm | 0.45 m/s, 81° | 11 W/m² | - |
| 1777990193 | 0.56° C | 96% | 1016.4 hPa | 0 mm | 0 m/s | 15 W/m² | - |
| 1777989890 | 0.56° C | 96% | 1016.5 hPa | 0 mm | 0 m/s | 11 W/m² | - |
* Rain latest hour (hover to see other rain measurements)
** Current wind speed in m/s (hover to see current wind gust speed)